SPOT 3 Rocket - Orbit

View from above orbital plane
View from above orbital plane
View from above satellite
View from above satellite

Ground track
Ground track

The orbit data is extracted from the following two-line orbital elements,

1 22830U 93061H   13140.01700376  .00000190  00000-0  89614-4 0  8909
2 22830 098.7723 106.5414 0010071 323.6697 086.6401 14.30887452 25238
Epoch (UTC): 20 May 2013 00:24:29
Eccentricity: 0.0010071
inclination: 98.7723°
perigee height: 781 km
apogee height: 796 km
right ascension of ascending node: 106.5414°
argument of perigee: 323.6697°
revolutions per day: 14.30887452
mean anomaly at epoch: 86.6401°
orbit number at epoch: 2523

The dashed part of the orbit path shows where the satellite is in the earth's shadow,  

Developed and maintained by Chris Peat, Heavens-Above GmbH. Please read the updated FAQ before sending e-mail. Imprint. DLR